date,time,DOY,Ta_1_1_1,Pa_1_1_1,RH_1_1_1,LWin_1_1_1,LWout_1_1_1,SWin_1_1_1,SWout_1_1_1,PPFD_1_1_1,MWS_1_1_1,WD_1_1_1,SWC_1_1_1,Ts_1_1_1
[yyyy-mm-dd],[HH:MM],[ddd.ddd],[K],[Pa],[%],[W+1m-2],[W+1m-2],[W+1m-2],[W+1m-2],[µmol+1m-2s-1],[m+1s-1],[deg],[m+3m-3],[K]
2018-11-02,00:30,306.020,273.09666666666664,94386.100000000006,65.078666666666678,308.89133333333331,240.92466666666667,1.6886666666666665,-4.4006666666666669,2.00000000000000004E-003,2.2933333333333339,42.010999999999996,0.29999999999999999,277.84866666666676
2018-11-02,01:00,306.041,273.21266666666662,94381.766666666663,64.130333333333311,309.16733333333343,241.62166666666664,1.4983333333333337,-4.4123333333333346,4.00000000000000008E-003,2.3800000000000003,22.877333333333343,0.29999999999999999,277.77200000000005
2018-11-02,01:30,306.062,273.25000000000000,94389.899999999994,63.917333333333346,308.55399999999997,242.30266666666662,1.2196666666666667,-4.3279999999999994,-6.00000000000000012E-003,2.2999999999999998,11.266000000000000,0.29999999999999999,277.71066666666667
2018-11-02,02:00,306.083,272.92633333333328,94389.600000000006,65.340333333333334,307.75333333333327,241.65566666666669,1.0430000000000004,-4.4219999999999997,1.00000000000000002E-003,2.4300000000000002,75.522333333333336,0.29999999999999999,277.63733333333323
2018-11-02,02:30,306.104,272.34866666666676,94364.866666666669,69.650666666666652,306.05733333333336,241.26766666666671,1.0550000000000002,-4.1850000000000005,-1.00000000000000002E-003,2.8033333333333332,18.122333333333327,0.29999999999999999,277.58100000000013
2018-11-02,03:00,306.124,272.13633333333331,94356.933333333334,74.863999999999990,305.69199999999995,241.67500000000007,1.2153333333333336,-4.0946666666666669,1.00000000000000002E-003,2.5266666666666664,19.533999999999999,0.29999999999999999,277.52333333333343
2018-11-02,03:30,306.145,272.01133333333343,94358.133333333331,78.588999999999999,305.30933333333337,241.20766666666668,1.2440000000000000,-3.9753333333333329,-1.00000000000000002E-003,2.8433333333333337,24.533333333333328,0.29999999999999999,277.46866666666671
2018-11-02,04:00,306.166,272.07333333333349,94337.000000000000,79.877333333333326,305.24433333333337,241.88166666666672,1.1700000000000002,-3.9630000000000001,2.00000000000000004E-003,2.9099999999999997,20.978333333333339,0.29999999999999999,277.41666666666669
2018-11-02,04:30,306.187,271.93633333333332,94320.033333333340,81.196666666666673,304.93500000000000,240.60766666666669,1.1450000000000000,-4.0723333333333329,0.0000000000000000,2.6433333333333326,19.100000000000001,0.29999999999999999,277.37466666666666
2018-11-02,05:00,306.208,271.86999999999995,94313.666666666672,81.911999999999992,304.39699999999993,240.65266666666670,1.1173333333333333,-4.1083333333333334,0.0000000000000000,2.3699999999999997,19.244333333333330,0.29999999999999999,277.32666666666671
2018-11-02,05:30,306.229,271.67533333333336,94320.800000000003,82.546666666666667,303.67000000000002,245.95800000000000,0.85900000000000021,-3.7263333333333342,-3.00000000000000006E-003,2.1299999999999999,49.744666666666667,0.29999999999999999,277.28833333333336
2018-11-02,06:00,306.249,271.38900000000001,94308.466666666660,83.861999999999995,302.43966666666660,239.93966666666665,1.0700000000000001,-3.9549999999999992,2.00000000000000004E-003,2.3366666666666664,25.800666666666665,0.29999999999999999,277.24300000000005
2018-11-02,06:30,306.270,271.63466666666670,94312.199999999997,83.087333333333333,304.38566666666668,265.48833333333329,1.0876666666666666,-2.5966666666666662,0.0000000000000000,2.3999999999999999,18.411000000000001,0.29999999999999999,277.20900000000000
2018-11-02,07:00,306.291,271.97599999999994,94321.333333333328,77.500333333333344,307.79833333333323,292.70366666666661,0.45099999999999990,-1.1993333333333329,-1.00000000000000002E-003,2.4200000000000004,29.311999999999994,0.29999999999999999,277.18200000000002
2018-11-02,07:30,306.312,272.18300000000005,94332.666666666672,75.149000000000029,308.89133333333325,294.50566666666674,0.51299999999999990,-0.71733333333333316,2.00000000000000004E-003,2.4266666666666667,43.299666666666667,0.29999999999999999,277.15433333333328
2018-11-02,08:00,306.333,272.58000000000015,94352.466666666660,71.227666666666664,310.53500000000003,298.09566666666672,0.34966666666666663,-0.75033333333333330,-1.00000000000000002E-003,2.0033333333333334,50.100333333333332,0.29999999999999999,277.14333333333332
2018-11-02,08:30,306.354,272.59366666666665,94356.866666666669,70.280000000000001,311.03966666666668,298.89166666666665,0.38233333333333330,-0.73333333333333328,2.00000000000000004E-003,1.4633333333333332,42.132999999999996,0.29999999999999999,277.12700000000001
2018-11-02,09:00,306.374,272.66533333333342,94355.199999999997,70.817000000000007,311.61199999999997,297.84933333333345,0.31433333333333341,-0.88566666666666671,1.00000000000000002E-003,1.4399999999999999,48.454333333333345,0.29999999999999999,277.11900000000003
2018-11-02,09:30,306.395,272.17566666666664,94376.566666666666,74.810333333333347,310.64066666666656,297.23100000000005,-1.16666666666666776E-002,-1.1220000000000001,1.00000000000000002E-003,1.8000000000000000,171.11099999999999,0.29999999999999999,277.11566666666664
2018-11-02,10:00,306.416,271.91333333333330,94378.466666666660,77.504333333333321,309.51266666666663,297.31699999999995,0.42933333333333329,-0.78599999999999992,3.00000000000000006E-003,0.78666666666666663,134.13266666666667,0.29999999999999999,277.10800000000012
2018-11-02,10:30,306.437,271.87233333333324,94388.100000000006,79.645333333333326,309.50100000000003,296.42400000000009,0.47900000000000009,-0.74533333333333318,-2.00000000000000004E-003,0.80666666666666653,108.80033333333334,0.29999999999999999,277.10499999999996
2018-11-02,11:00,306.458,271.67866666666674,94390.000000000000,81.439333333333309,307.27800000000002,268.93733333333336,0.78466666666666662,-2.4893333333333332,0.0000000000000000,0.92999999999999994,159.08866666666665,0.29999999999999999,277.10033333333337
2018-11-02,11:30,306.479,271.45766666666674,94389.899999999994,82.937333333333342,304.72100000000006,259.01533333333327,1.3556666666666668,-2.6379999999999995,-1.00000000000000002E-003,0.83000000000000018,145.55600000000001,0.29999999999999999,277.09266666666673
2018-11-02,12:00,306.499,271.17100000000011,94398.233333333337,84.709999999999980,304.70666666666671,272.84299999999996,0.95133333333333292,-1.9103333333333337,4.00000000000000008E-003,0.0000000000000000,0.0000000000000000,0.29999999999999999,277.07933333333335
2018-11-02,12:30,306.520,270.50266666666670,94419.466666666660,88.321666666666687,304.59399999999994,287.96299999999997,0.12266666666666667,-0.67566666666666664,0.27999999999999997,0.0000000000000000,0.0000000000000000,0.29999999999999999,277.07166666666666
2018-11-02,13:00,306.541,270.57700000000006,94428.366666666669,88.561333333333337,304.36833333333340,282.99766666666670,1.4460000000000002,5.9606666666666666,12.957666666666665,0.0000000000000000,0.0000000000000000,0.29999999999999999,277.04833333333335
2018-11-02,13:30,306.562,271.03433333333339,94434.633333333331,88.376333333333321,305.97733333333332,277.49333333333328,5.3826666666666672,33.206333333333333,64.837666666666664,2.00000000000000039E-002,4.4776666666666660,0.29999999999999999,277.03833333333330
2018-11-02,14:00,306.583,271.49133333333344,94438.000000000000,87.218666666666664,308.02533333333326,271.12099999999998,9.7599999999999998,63.317999999999991,85.878333333333330,0.56666666666666676,16.989333333333331,0.29999999999999999,277.02733333333339
2018-11-02,14:30,306.604,271.99133333333333,94438.766666666663,85.217666666666659,312.25233333333330,271.45200000000006,18.174666666666663,126.13233333333331,88.403999999999982,0.94999999999999996,41.100333333333325,0.29999999999999999,277.02800000000002
2018-11-02,15:00,306.624,272.74466666666666,94447.566666666666,80.469666666666669,316.92366666666669,277.54933333333327,24.228666666666673,184.77533333333335,82.415333333333336,1.5333333333333337,95.688333333333318,0.29999999999999999,277.02933333333334
2018-11-02,15:30,306.645,273.49433333333337,94460.966666666660,74.737999999999985,322.65533333333332,289.81900000000007,27.239000000000001,234.29599999999991,432.07033333333339,1.5066666666666664,145.87800000000001,0.29999999999999999,277.03666666666669
2018-11-02,16:00,306.666,273.94800000000004,94456.566666666666,70.847333333333324,324.86266666666660,302.43466666666666,21.812999999999999,198.89133333333334,386.05633333333333,1.6066666666666667,123.19966666666666,0.29999999999999999,277.06066666666669
2018-11-02,16:30,306.687,274.08133333333330,94461.333333333328,68.514333333333340,326.80300000000011,305.33366666666666,27.757333333333335,247.09166666666675,476.09233333333333,1.2866666666666666,100.91100000000000,0.29999999999999999,277.08633333333341
2018-11-02,17:00,306.708,274.54700000000014,94460.000000000000,64.338666666666668,330.36899999999997,301.42833333333328,33.462666666666664,303.19666666666672,570.58900000000006,1.0833333333333333,130.23333333333332,0.29999999999999999,277.12266666666670
2018-11-02,17:30,306.729,274.91233333333338,94453.666666666672,62.312333333333328,330.07333333333332,306.74966666666666,19.423333333333336,191.82833333333332,275.25299999999999,2.7433333333333332,228.35499999999999,0.29999999999999999,277.17333333333329
2018-11-02,18:00,306.749,274.64200000000011,94434.899999999994,64.557666666666663,325.59233333333333,308.44900000000001,10.762666666666666,101.29366666666667,209.29133333333337,3.1466666666666669,68.878000000000000,0.29999999999999999,277.21200000000005
2018-11-02,18:30,306.770,274.64633333333330,94425.333333333328,63.074333333333335,326.20433333333341,307.19766666666669,14.129333333333335,131.03366666666665,265.84933333333333,2.7533333333333334,234.27733333333333,0.29999999999999999,277.24466666666672
2018-11-02,19:00,306.791,274.87399999999997,94423.466666666660,62.600000000000009,328.06099999999998,308.62099999999998,15.027666666666665,140.92500000000004,281.32700000000006,2.5033333333333334,238.80000000000001,0.29999999999999999,277.27066666666673
2018-11-02,19:30,306.812,275.02866666666677,94414.233333333337,59.864000000000004,328.29166666666669,308.45733333333334,14.276333333333334,131.51833333333335,261.97266666666656,2.2299999999999995,193.84433333333334,0.29999999999999999,277.30100000000010
2018-11-02,20:00,306.833,275.28333333333325,94410.000000000000,58.547333333333327,329.49300000000005,308.04299999999995,13.650333333333338,128.32233333333335,257.21033333333338,1.3133333333333332,112.96599999999999,0.29999999999999999,277.33833333333342
2018-11-02,20:30,306.854,275.35666666666657,94410.000000000000,58.749666666666670,328.62833333333333,308.40899999999999,8.8976666666666642,84.350666666666669,172.87399999999997,1.2933333333333334,117.35600000000001,0.29999999999999999,277.37366666666668
2018-11-02,21:00,306.874,275.23133333333345,94414.866666666669,61.925999999999995,327.71300000000002,307.51799999999997,8.1359999999999992,76.103333333333325,155.08466666666669,2.0500000000000003,116.01133333333334,0.29999999999999999,277.40766666666661
2018-11-02,21:30,306.895,274.93366666666668,94422.699999999997,64.828666666666663,325.64500000000004,306.85333333333335,5.9333333333333336,52.956666666666671,106.46933333333335,2.2033333333333331,168.03333333333333,0.29999999999999999,277.43233333333330
2018-11-02,22:00,306.916,274.78900000000004,94430.100000000006,65.215333333333334,323.85233333333332,305.89699999999999,2.7150000000000003,23.480333333333341,48.919000000000011,1.9033333333333333,247.43366666666668,0.29999999999999999,277.44999999999999
2018-11-02,22:30,306.937,274.57433333333341,94430.633333333331,66.297666666666657,322.24966666666660,303.40366666666671,1.5263333333333335,11.646666666666663,25.810000000000006,2.1633333333333336,137.58833333333331,0.29999999999999999,277.46266666666662
2018-11-02,23:00,306.958,274.41333333333324,94446.899999999994,67.310666666666663,320.88000000000000,301.23566666666670,0.54166666666666663,0.99433333333333329,5.1183333333333350,2.1700000000000008,101.78866666666666,0.29999999999999999,277.46200000000005
2018-11-02,23:30,306.979,274.27100000000007,94464.566666666666,68.569999999999979,319.78433333333328,302.04566666666665,0.40333333333333327,-1.2180000000000002,6.70000000000000040E-002,1.4300000000000004,186.60033333333334,0.29999999999999999,277.46800000000007
2018-11-03,00:00,307.000,274.15333333333331,94495.000000000000,69.161999999999978,319.05166666666662,302.16066666666666,0.42066666666666674,-1.1143333333333336,2.33333333333333353E-003,1.8233333333333330,244.56633333333332,0.29999999999999999,277.46266666666668
